STARLINK-30152, 56828

Orbit data source: Space-Track

STARLINK-30152, 56828 is a payload satellite owned by SpaceX/Seattle (US) in LEO that was launched on Sun, 04 Jun 2023 UTC via an FALCON 9 launch vehicle from the Air Force Eastern Test Range (AFETR). Payload-class satellites include a variety of spacecraft equipped with specific instruments for various scientific and technological missions. These include communications satellites like Starlink; space stations such as the ISS; scientific satellites like the Hubble; Earth observation satellites from companies like Planet Labs, Umbra, and HawkEye 360; GPS; miniature CubeSats for education and research; and military/defense satellites.

Loading next visibility...
Identifier
56828, 2023-079F
Orbit
LEO
Country
Flag of USUS
Related business
Manufacturer
SpaceX/Seattle
Mission
Operational Commercial Communications
Bus & Motor
STARLINK V2M, Unknown motor
Mass
730 kg wet, ~700 kg dry
Launch date (UTC)
2023-06-04 (3 years ago)
Launch vehicle
FALCON 9
Launch site
Air Force Eastern Test Range (AFETR)
Object type
Payload
Rocket body
Debris
Shape & HBR
Box + 2 Pan, 17.7 m
Radar Cross Section
33.884 m², Large (>1 m²)

Expand to show TLE details & history
Last TLE update: 2 days ago

TLE from 2 days ago
0 STARLINK-30152
1 56828U 23079F   26171.25552777  .00000082  00000-0  12491-4 0  9998
2 56828  43.0029 247.8798 0001238 270.8648  89.2062 15.27575272168570
Epoch: 2026-06-20T06:07Z
TLE epoch observation values (Epoch: 2026-06-20T06:07:57.599Z)
Latitude
Longitude
-112.58297°
Altitude
482.827 km
Speed
7.626 km/s
True Right ascension
16h 31m 31s
True Declination
0° 00' 00"
Sunlit
Object was in full shadow at epoch
Visualization orbit readout
Latitude
Unknown
Longitude
Unknown
Altitude
Unknown
Speed
Unknown
Apparent Right ascension
Unknown
Apparent Declination
Unknown
Sunlit
N/A
Visualization observer readout
Local Sidereal Time
21:29:40
Azimuth
Unknown
Elevation
Unknown
Doppler factor
Unknown
Orbital elements
Apogee altitude
485.858 km
Perigee altitude
484.158 km
Semi-major axis
6,863.145 km
Eccentricity
0.00012
Inclination
43.0029°
RAAN
247.8798°
Arg. of periapsis
270.8648°
True anomaly
89.22039°
Mean anomaly
89.2062°
Eccentric anomaly
89.21329°
Mean motion
3.81732 °/min
Orbital period
94.31 mins
BSTAR
0.000012491
Loading maneuver chart data...
Computing Atmospheric mass density...
Loading historical data...
Loading historical data...
Loading historical data...
Loading historical data...
Loading historical data...
Loading historical data...
Loading historical data...

Documentation

Showing up to 5 results
|